FW3129 Weather Reports


Display with metric or nautical units.
time (UTC)temp
F
wind
direction
speed
MPH
gust
MPH
rain 1hr
in
rain 24hr
in
rain mn
in
humidity
%
barometer
mb
20260509041528 80 0 1.0 5.0 0.00 0.00 0.00 87 1016.5
20260509040032 81 143 0.0 6.0 0.00 0.00 0.00 87 1016.5
20260509034537 80 0 0.0 4.0 0.00 0.00 0.00 87 1016.8
20260509033027 81 0 0.0 2.0 0.00 0.00 0.00 86 1016.8
20260509031549 81 107 0.0 4.0 0.00 0.00 0.00 86 1017.0
20260509030052 81 93 0.0 3.0 0.00 0.00 0.00 86 1016.9
20260509024532 81 124 0.0 1.0 0.00 0.00 0.00 86 1016.7
20260509023033 80 103 0.0 1.0 0.00 0.00 0.00 85 1016.4
20260509021536 81 0 0.0 1.0 0.00 0.00 0.00 85 1016.4
20260509020028 81 0 0.0 1.0 0.00 0.00 0.00 85 1016.4
20260509014530 81 0 0.0 1.0 0.00 0.00 0.00 85 1016.3
20260509013027 81 103 0.0 2.0 0.00 0.00 0.00 84 1016.1
20260509011531 81 0 0.0 2.0 0.00 0.00 0.00 84 1015.8
20260509010028 81 119 0.0 1.0 0.00 0.00 0.00 84 1015.6
20260509004536 81 112 0.0 6.0 0.00 0.00 0.00 84 1015.6
20260509003034 81 84 0.0 3.0 0.00 0.00 0.00 83 1015.2
20260509001530 82 0 0.0 4.0 0.00 0.00 0.00 83 1015.1
20260509000029 82 0 0.0 3.0 0.00 0.00 0.00 82 1015.0
20260508234527 82 72 0.0 5.0 0.00 0.00 0.00 81 1014.9
20260508233028 83 51 1.0 7.0 0.00 0.00 0.00 81 1014.7
20260508231527 83 105 2.0 6.0 0.00 0.00 0.00 79 1014.6
20260508230030 83 82 2.0 7.0 0.00 0.00 0.00 77 1014.6
20260508224533 84 83 2.0 9.0 0.00 0.00 0.00 78 1014.4
20260508223042 84 72 2.0 10.0 0.00 0.00 0.00 78 1014.4
20260508221528 84 100 3.0 11.0 0.00 0.00 0.00 77 1014.4
20260508220028 84 84 4.0 11.0 0.00 0.00 0.00 77 1014.5
20260508214529 85 65 3.0 11.0 0.00 0.00 0.00 77 1014.4
20260508213030 85 117 4.0 10.0 0.00 0.00 0.00 76 1014.3
20260508211527 85 97 5.0 14.0 0.00 0.00 0.00 75 1014.4
20260508210030 86 83 3.0 12.0 0.00 0.00 0.00 73 1014.6
20260508204529 86 149 5.0 9.0 0.00 0.00 0.00 72 1014.8
20260508203028 87 94 5.0 12.0 0.00 0.00 0.00 68 1014.9
20260508201531 87 109 2.0 11.0 0.00 0.00 0.00 70 1015.2
20260508200028 87 103 4.0 11.0 0.00 0.00 0.00 69 1015.1
20260508194537 87 98 3.0 10.0 0.00 0.00 0.00 69 1015.3
20260508193029 87 79 4.0 11.0 0.00 0.00 0.00 69 1015.4
20260508191535 86 114 5.0 10.0 0.00 0.00 0.00 70 1015.5
20260508190029 86 67 5.0 12.0 0.00 0.00 0.00 70 1015.8
20260508184528 86 88 6.0 12.0 0.00 0.00 0.00 68 1015.9
20260508183032 86 122 5.0 13.0 0.00 0.00 0.00 64 1016.2
20260508181532 88 77 4.0 10.0 0.00 0.00 0.00 58 1016.5
20260508180028 88 96 3.0 9.0 0.00 0.00 0.00 59 1016.5
20260508174533 88 76 2.0 7.0 0.00 0.00 0.00 62 1016.6
20260508173134 87 120 3.0 11.0 0.00 0.00 0.00 65 1017.0
20260508171531 88 105 4.0 8.0 0.00 0.00 0.00 64 1017.1
20260508170028 87 140 4.0 9.0 0.00 0.00 0.00 65 1017.1
20260508164529 87 110 3.0 9.0 0.00 0.00 0.00 67 1017.3
20260508163032 86 92 4.0 8.0 0.00 0.00 0.00 66 1017.4
20260508161528 87 214 4.0 9.0 0.00 0.00 0.00 62 1017.6
20260508160029 87 152 5.0 9.0 0.00 0.00 0.00 62 1017.8
20260508154528 87 108 3.0 7.0 0.00 0.00 0.00 62 1017.9
20260508153037 87 110 4.0 8.0 0.00 0.00 0.00 63 1017.9
20260508151530 88 141 1.0 4.0 0.00 0.00 0.00 59 1018.0
20260508150048 87 63 0.0 5.0 0.00 0.00 0.00 55 1017.8
20260508144528 86 290 0.0 8.0 0.00 0.00 0.00 61 1017.9
20260508143030 85 64 1.0 5.0 0.00 0.00 0.00 63 1018.0
20260508141530 84 304 1.0 6.0 0.00 0.00 0.00 65 1018.1
20260508140030 83 356 1.0 7.0 0.00 0.00 0.00 67 1018.0
20260508134529 82 314 3.0 7.0 0.00 0.00 0.00 69 1018.1
20260508133028 81 298 1.0 7.0 0.00 0.00 0.00 71 1017.9
20260508131528 80 306 3.0 8.0 0.00 0.00 0.00 73 1017.9
20260508130029 79 310 3.0 8.0 0.00 0.00 0.00 74 1017.9
20260508124532 79 30 2.0 8.0 0.00 0.00 0.00 77 1017.8
20260508123033 77 23 1.0 6.0 0.00 0.00 0.00 79 1017.7
20260508121530 77 305 1.0 7.0 0.00 0.00 0.00 81 1017.6
20260508120028 75 309 2.0 5.0 0.00 0.00 0.00 83 1017.5
20260508114532 75 297 0.0 3.0 0.00 0.00 0.00 87 1017.2
20260508113030 73 293 0.0 1.0 0.00 0.00 0.00 89 1017.0
20260508111529 72 294 0.0 1.0 0.00 0.00 0.00 89 1016.8
20260508110029 72 0 0.0 1.0 0.00 0.00 0.00 90 1016.6
20260508104528 72 256 0.0 1.0 0.00 0.00 0.00 90 1016.3
20260508103028 72 0 0.0 1.0 0.00 0.00 0.00 89 1016.3
20260508101531 72 275 0.0 1.0 0.00 0.00 0.00 89 1016.2
20260508100033 72 0 0.0 2.0 0.00 0.00 0.00 89 1016.0
20260508094528 72 0 0.0 1.0 0.00 0.00 0.00 89 1015.9
20260508093035 73 265 0.0 1.0 0.00 0.00 0.00 88 1015.9
20260508091530 73 252 0.0 2.0 0.00 0.00 0.00 88 1015.9
20260508090034 73 305 0.0 2.0 0.00 0.00 0.00 87 1015.8
20260508084528 73 0 0.0 1.0 0.00 0.00 0.00 87 1015.8
20260508083030 74 0 0.0 1.0 0.00 0.00 0.00 86 1015.9
20260508081530 74 0 0.0 1.0 0.00 0.00 0.00 86 1015.7
20260508080049 74 0 0.0 2.0 0.00 0.00 0.00 86 1015.8
20260508074530 74 0 0.0 3.0 0.00 0.00 0.00 87 1015.9
20260508073030 74 310 0.0 2.0 0.00 0.00 0.00 89 1015.8
20260508071531 74 0 0.0 1.0 0.00 0.00 0.00 90 1015.6
20260508070029 75 0 0.0 1.0 0.00 0.00 0.00 89 1015.7
20260508064541 75 0 0.0 1.0 0.00 0.00 0.00 89 1015.9
20260508063029 76 240 0.0 1.0 0.00 0.00 0.00 88 1016.1
20260508061532 76 240 0.0 1.0 0.00 0.00 0.00 88 1016.1
20260508060027 76 261 0.0 2.0 0.00 0.00 0.00 88 1016.3
20260508054539 76 231 0.0 1.0 0.00 0.00 0.00 87 1016.4
20260508053028 77 0 0.0 3.0 0.00 0.00 0.00 86 1016.6
20260508051525 77 269 0.0 3.0 0.00 0.00 0.00 85 1016.5
20260508050028 78 262 0.0 5.0 0.00 0.00 0.00 84 1016.6
20260508044529 78 240 0.0 4.0 0.00 0.00 0.00 83 1016.6
20260508043028 78 0 0.0 4.0 0.00 0.00 0.00 82 1016.6